When you browse on this site, cookies collect data to enhance your experience and personalize the content and advertising you see.
Visit our Privacy Policy to learn more. By continuing to use the site, you agree to this use of cookies and data.
  • In Spain
  • List of Countries
  • For 7 days
  • Water Temperature
  • Satellite Maps
  • Weather Map
  • Weather Widgets
  • user-avatar
    Login

    Hourly Weather Semey

    Today, 17 June, Monday

    Time Temperature Precipitation Wind Pressure Humidity
    00:00 +10°C° 0 mm 2 mps 742 mmHg 71%
    01:00 +10°C° 0 mm 2 mps 742 mmHg 70%
    02:00 +9°C° 0 mm 3 mps 742 mmHg 69%
    03:00 +10°C° 0 mm 3 mps 742 mmHg 70%
    04:00 +10°C° 0 mm 4 mps 742 mmHg 71%
    05:00 +10°C° 0 mm 4 mps 742 mmHg 71%
    06:00 +12°C° 0 mm 4 mps 742 mmHg 63%
    07:00 +14°C° 0 mm 4 mps 742 mmHg 54%
    08:00 +17°C° 0 mm 4 mps 742 mmHg 45%
    09:00 +18°C° 0 mm 4 mps 742 mmHg 42%
    10:00 +19°C° 0 mm 4 mps 741 mmHg 40%
    11:00 +20°C° 0 mm 3 mps 741 mmHg 37%
    12:00 +21°C° 0 mm 4 mps 740 mmHg 36%
    13:00 +22°C° 0 mm 4 mps 740 mmHg 36%
    14:00 +22°C° 0 mm 4 mps 739 mmHg 36%
    15:00 +22°C° 0 mm 4 mps 739 mmHg 36%
    16:00 +23°C° 0 mm 5 mps 739 mmHg 36%
    17:00 +23°C° 0 mm 5 mps 739 mmHg 37%
    18:00 +21°C° 0 mm 5 mps 738 mmHg 42%
    19:00 +20°C° 0 mm 5 mps 738 mmHg 47%
    20:00 +19°C° 0 mm 5 mps 738 mmHg 51%
    21:00 +17°C° 0 mm 6 mps 737 mmHg 52%
    22:00 +17°C° 0 mm 6 mps 737 mmHg 53%
    23:00 +17°C° 0 mm 7 mps 737 mmHg 54%

    Tomorrow, 18 June, Tuesday

    Time Temperature Precipitation Wind Pressure Humidity
    00:00 +16°C° 0 mm 7 mps 736 mmHg 54%
    01:00 +16°C° 0 mm 7 mps 735 mmHg 54%
    02:00 +16°C° 0 mm 7 mps 735 mmHg 53%
    03:00 +16°C° 0 mm 7 mps 735 mmHg 53%
    04:00 +16°C° 0 mm 7 mps 735 mmHg 53%
    05:00 +17°C° 0 mm 7 mps 734 mmHg 53%
    06:00 +19°C° 0 mm 6 mps 734 mmHg 49%
    07:00 +21°C° 0 mm 5 mps 734 mmHg 45%
    08:00 +23°C° 0 mm 5 mps 734 mmHg 41%
    09:00 +23°C° 0 mm 5 mps 734 mmHg 40%
    10:00 +25°C° 0 mm 5 mps 734 mmHg 38%
    11:00 +24°C° 0 mm 6 mps 734 mmHg 36%
    12:00 +24°C° 0.1 mm 6 mps 734 mmHg 39%
    13:00 +24°C° 0.1 mm 6 mps 734 mmHg 41%
    14:00 +24°C° 0.1 mm 7 mps 733 mmHg 43%
    15:00 +23°C° 0.4 mm 6 mps 733 mmHg 48%
    16:00 +22°C° 0.4 mm 6 mps 733 mmHg 54%
    17:00 +21°C° 0.4 mm 6 mps 733 mmHg 60%
    18:00 +20°C° 0.1 mm 5 mps 733 mmHg 60%
    19:00 +20°C° 0.1 mm 5 mps 734 mmHg 60%
    20:00 +19°C° 0.1 mm 5 mps 735 mmHg 61%
    21:00 +18°C° 0 mm 4 mps 736 mmHg 64%
    22:00 +16°C° 0 mm 3 mps 736 mmHg 68%
    23:00 +15°C° 0 mm 2 mps 737 mmHg 72%

    Day after tomorrow, 19 June, Wednesday

    Time Temperature Precipitation Wind Pressure Humidity
    00:00 +15°C° 0 mm 2 mps 737 mmHg 73%
    01:00 +14°C° 0 mm 1 mps 738 mmHg 73%
    02:00 +14°C° 0 mm 1 mps 738 mmHg 74%
    03:00 +14°C° 0 mm 1 mps 738 mmHg 72%
    04:00 +15°C° 0 mm 1 mps 739 mmHg 70%
    05:00 +16°C° 0 mm 1 mps 739 mmHg 68%
    06:00 +18°C° 0 mm 1 mps 739 mmHg 61%
    07:00 +19°C° 0 mm 1 mps 739 mmHg 54%
    08:00 +21°C° 0 mm 1 mps 740 mmHg 46%
    09:00 +21°C° 0 mm 1 mps 740 mmHg 43%
    10:00 +22°C° 0 mm 1 mps 740 mmHg 39%
    11:00 +23°C° 0 mm 1 mps 740 mmHg 35%
    12:00 +24°C° 0 mm 1 mps 739 mmHg 34%
    13:00 +24°C° 0 mm 1 mps 739 mmHg 32%
    14:00 +22°C° 0 mm 0 mps 739 mmHg 31%
    15:00 +24°C° 0 mm 1 mps 739 mmHg 31%
    16:00 +24°C° 0 mm 1 mps 739 mmHg 32%
    17:00 +24°C° 0 mm 1 mps 739 mmHg 32%
    18:00 +23°C° 0 mm 1 mps 740 mmHg 36%
    19:00 +21°C° 0 mm 2 mps 740 mmHg 41%
    20:00 +19°C° 0 mm 2 mps 740 mmHg 45%
    21:00 +19°C° 0 mm 2 mps 740 mmHg 47%
    22:00 +18°C° 0 mm 2 mps 740 mmHg 49%
    23:00 +17°C° 0 mm 3 mps 741 mmHg 52%

    20 June, Thursday

    Time Temperature Precipitation Wind Pressure Humidity
    00:00 +17°C° 0 mm 3 mps 740 mmHg 56%
    01:00 +16°C° 0 mm 3 mps 740 mmHg 60%
    02:00 +16°C° 0 mm 3 mps 740 mmHg 65%
    03:00 +16°C° 0 mm 2 mps 740 mmHg 64%
    04:00 +17°C° 0 mm 2 mps 741 mmHg 64%
    05:00 +18°C° 0 mm 1 mps 741 mmHg 63%
    06:00 +20°C° 0 mm 1 mps 741 mmHg 56%
    07:00 +22°C° 0 mm 1 mps 741 mmHg 49%
    08:00 +23°C° 0 mm 1 mps 741 mmHg 43%
    09:00 +24°C° 0 mm 1 mps 741 mmHg 39%
    10:00 +24°C° 0 mm 1 mps 741 mmHg 34%
    11:00 +25°C° 0 mm 1 mps 741 mmHg 30%
    12:00 +25°C° 0 mm 2 mps 741 mmHg 30%
    13:00 +26°C° 0 mm 2 mps 741 mmHg 30%
    14:00 +26°C° 0 mm 2 mps 741 mmHg 29%
    15:00 +26°C° 0 mm 2 mps 741 mmHg 29%
    16:00 +26°C° 0 mm 2 mps 741 mmHg 30%
    17:00 +26°C° 0 mm 3 mps 741 mmHg 30%
    18:00 +25°C° 0 mm 3 mps 741 mmHg 34%
    19:00 +23°C° 0 mm 2 mps 741 mmHg 38%
    20:00 +21°C° 0 mm 2 mps 742 mmHg 42%
    21:00 +20°C° 0 mm 2 mps 742 mmHg 45%
    22:00 +19°C° 0 mm 2 mps 742 mmHg 48%
    23:00 +18°C° 0 mm 2 mps 742 mmHg 51%

    21 June, Friday

    Time Temperature Precipitation Wind Pressure Humidity
    00:00 +18°C° 0 mm 1 mps 741 mmHg 55%
    01:00 +18°C° 0 mm 1 mps 741 mmHg 58%
    02:00 +16°C° 0 mm 1 mps 741 mmHg 61%
    03:00 +18°C° 0 mm 1 mps 741 mmHg 60%
    04:00 +18°C° 0 mm 1 mps 741 mmHg 59%
    05:00 +19°C° 0 mm 1 mps 742 mmHg 58%
    06:00 +21°C° 0 mm 1 mps 742 mmHg 52%
    07:00 +22°C° 0 mm 1 mps 742 mmHg 47%
    08:00 +24°C° 0 mm 2 mps 742 mmHg 41%
    09:00 +25°C° 0 mm 2 mps 742 mmHg 39%
    10:00 +25°C° 0 mm 2 mps 742 mmHg 36%
    11:00 +26°C° 0 mm 2 mps 742 mmHg 33%
    12:00 +26°C° 0 mm 3 mps 742 mmHg 34%
    13:00 +26°C° 0 mm 3 mps 741 mmHg 34%
    14:00 +26°C° 0 mm 3 mps 741 mmHg 34%
    15:00 +26°C° 0 mm 3 mps 741 mmHg 33%
    16:00 +26°C° 0 mm 3 mps 741 mmHg 32%
    17:00 +26°C° 0 mm 2 mps 741 mmHg 31%
    18:00 +25°C° 0 mm 2 mps 741 mmHg 35%
    19:00 +23°C° 0 mm 1 mps 740 mmHg 40%
    20:00 +21°C° 0 mm 1 mps 740 mmHg 45%
    21:00 +21°C° 0 mm 1 mps 740 mmHg 46%
    22:00 +20°C° 0 mm 1 mps 740 mmHg 47%
    23:00 +19°C° 0 mm 2 mps 740 mmHg 48%

    22 June, Saturday

    Time Temperature Precipitation Wind Pressure Humidity
    00:00 +18°C° 0 mm 2 mps 740 mmHg 50%
    01:00 +18°C° 0 mm 2 mps 740 mmHg 52%
    02:00 +17°C° 0 mm 2 mps 739 mmHg 54%
    03:00 +18°C° 0 mm 2 mps 739 mmHg 55%
    04:00 +18°C° 0 mm 2 mps 739 mmHg 56%
    05:00 +19°C° 0 mm 2 mps 739 mmHg 57%
    06:00 +21°C° 0 mm 2 mps 739 mmHg 51%
    07:00 +24°C° 0 mm 2 mps 739 mmHg 45%
    08:00 +25°C° 0 mm 2 mps 739 mmHg 39%
    09:00 +26°C° 0 mm 2 mps 739 mmHg 35%
    10:00 +27°C° 0 mm 2 mps 739 mmHg 32%
    11:00 +28°C° 0 mm 2 mps 739 mmHg 29%
    12:00 +29°C° 0 mm 2 mps 738 mmHg 29%
    13:00 +29°C° 0 mm 2 mps 738 mmHg 29%
    14:00 +29°C° 0 mm 3 mps 737 mmHg 29%
    15:00 +30°C° 0 mm 3 mps 737 mmHg 28%
    16:00 +30°C° 0 mm 2 mps 737 mmHg 28%
    17:00 +30°C° 0 mm 2 mps 737 mmHg 27%
    18:00 +27°C° 0 mm 5 mps 737 mmHg 38%
    19:00 +23°C° 0 mm 7 mps 737 mmHg 48%
    20:00 +19°C° 0 mm 10 mps 738 mmHg 59%
    21:00 +18°C° 0 mm 8 mps 738 mmHg 62%
    22:00 +18°C° 0 mm 7 mps 738 mmHg 66%
    23:00 +17°C° 0 mm 5 mps 738 mmHg 69%
    Show more